User: anonymous   Login
Location: Hoyos del Collado
(40.3594°N, 5.2003°W)
Time: 16:17:27
(UTC+00:00)
Language:

Okean 2 Rocket - Orbit

View from above orbital plane
View from above orbital plane
View from above satellite
View from above satellite

Ground track
Ground track

The orbit data is extracted from the following two-line orbital elements,

1 20511U 90018B   24177.20090689  .00000544  00000-0  67046-4 0  9992
2 20511  82.5221  84.5352 0016150 344.8192  15.2534 14.81079508851492
Epoch (UTC): 25 June 2024 04:49:18
Eccentricity: 0.0016150
inclination: 82.5221°
perigee height: 614 km
apogee height: 637 km
right ascension of ascending node: 84.5352°
argument of perigee: 344.8192°
revolutions per day: 14.81079508
mean anomaly at epoch: 15.2534°
orbit number at epoch: 85149

The dashed part of the orbit path shows where the satellite is in the earth's shadow,  

DLR